Location: Boncourt
(49.6160°N, 3.9448°E)
Time: 12:37:29
(UTC+00:00)

COSMOS 2428 - Pass Details

Date: 09 February 2023
Orbit: 843 x 858 km, 70.9° (Epoch: 22 March)

Event Time Altitude Azimuth Distance (km) Brightness Sun altitude
Rises 18:56:03 0° 213° (SSW) 3,391 6.3 -20.3°
Reaches altitude 10° 18:58:30 10° 215° (SW) 2,459 5.5 -20.7°
Maximum altitude 19:04:08 73° 300° (WNW) 885 2.9 -21.6°
Enters shadow 19:09:12 13° 25° (NNE) 2,247 4.7 -22.5°
